DateTimeUTC,F1_A11,F1_S11,BsB_S11,BsG_S11,BsR_S11,BbsB_S11,BbsG_S11,BbsR_S11,BaB_A11,BaG_A11,BaR_A11,Tu_S11,T_S11,Uu_S11,U_S11,P_S11,T1_A11
2021-09-30T16:00:00Z,00000200,21000000,,,,,,,-000.14,-000.08,-000.14,17.9,24.5,00.6,00.4,0670.6,31.0
2021-09-30T16:01:00Z,00000200,21000000,,,,,,,0000.36,0000.31,0000.38,17.9,24.5,00.6,00.4,0670.5,31.0
2021-09-30T16:02:00Z,00000200,21000000,,,,,,,-000.28,-000.58,-000.62,17.9,24.5,00.6,00.4,0670.5,31.0
2021-09-30T16:03:00Z,00000200,61000000,,,,,,,-000.18,0000.04,0000.14,17.9,24.6,00.6,00.4,0670.5,31.0
2021-09-30T16:04:00Z,00000200,41000000,-000.05,0000.65,-000.14,-000.04,0000.03,-000.18,0000.25,0000.05,-000.02,18.1,24.4,00.6,00.4,0671.5,31.0
2021-09-30T16:05:00Z,00000200,01000000,0000.26,0000.09,0000.02,0000.39,0000.32,-000.09,0000.14,0000.06,-000.12,18.1,24.4,00.6,00.4,0671.6,31.0
2021-09-30T16:06:00Z,00000200,01000000,0000.33,0000.02,0000.24,-000.15,-000.02,0000.22,-000.18,-000.03,0000.12,18.1,24.3,00.6,00.4,0671.6,31.0
2021-09-30T16:07:00Z,00000200,01000000,0000.29,0000.12,0000.23,0000.30,-000.10,0000.22,0000.04,-000.13,-000.02,18.1,24.3,00.6,00.4,0671.6,31.0
2021-09-30T16:08:00Z,00000200,01000000,-000.20,0000.13,0000.11,-000.44,0000.32,0000.08,-000.02,0000.18,-000.06,18.1,24.3,00.5,00.4,0671.7,31.0
2021-09-30T16:09:00Z,00000200,01000000,0000.40,0000.02,0000.15,-000.02,0000.14,0000.25,-000.36,0000.10,0000.04,18.1,24.4,00.5,00.3,0671.7,31.0
2021-09-30T16:10:00Z,00000200,01000000,0000.44,0000.17,0000.00,0000.13,0000.04,0000.21,0000.01,-000.20,0000.16,18.1,24.3,00.5,00.4,0671.7,31.0
2021-09-30T16:11:00Z,00000200,01000000,0000.47,0000.05,0000.28,-000.18,0000.17,-000.09,0000.00,-000.16,-000.25,18.1,24.3,00.5,00.3,0671.7,31.0
2021-09-30T16:12:00Z,00000200,01000000,0000.53,0000.17,0000.51,0000.21,0000.12,-000.01,0000.55,0000.34,-000.11,18.1,24.3,00.3,00.2,0671.7,31.0
2021-09-30T16:13:00Z,00000200,01000000,-000.07,-000.04,0000.05,0000.36,0000.09,0000.33,-000.11,0000.08,0000.41,18.1,24.3,00.4,00.3,0671.7,31.0
2021-09-30T16:14:00Z,00000200,01000000,0000.48,0000.16,0000.40,-000.12,0000.14,0000.15,0000.15,-000.11,0000.02,18.1,24.3,00.4,00.2,0671.7,31.0
2021-09-30T16:15:00Z,00000200,01000000,-000.26,-000.22,-000.31,-000.09,0000.19,-000.03,0000.07,0000.13,-000.16,18.1,24.4,00.4,00.3,0671.8,31.0
2021-09-30T16:16:00Z,00000200,01000000,0000.53,-000.17,0000.75,-000.44,-000.03,0000.23,-000.07,-000.09,0000.11,18.1,24.4,00.4,00.3,0671.8,31.0
2021-09-30T16:17:00Z,00000200,01000000,0000.37,0000.24,0000.49,0000.31,0000.11,-000.21,-000.06,0000.20,-000.19,18.2,24.4,00.3,00.2,0671.9,31.0
2021-09-30T16:18:00Z,00000200,01000000,0000.60,0000.24,0000.38,0000.59,0000.13,0000.37,0000.09,-000.23,0000.27,18.2,24.4,00.3,00.2,0671.9,31.0
2021-09-30T16:19:00Z,00000200,01000000,0000.27,0000.20,-000.32,0000.23,-000.04,-000.09,-000.23,0000.27,-000.22,18.2,24.4,00.3,00.2,0671.9,31.0
2021-09-30T16:20:00Z,00000200,01000000,0000.25,-000.10,-000.25,-000.09,0000.08,-000.00,0000.21,0000.03,-000.03,18.1,24.4,00.3,00.2,0671.9,31.0
2021-09-30T16:21:00Z,00000200,01000000,0000.19,-000.00,0000.05,-000.16,-000.11,-000.02,0000.04,-000.08,0000.10,18.1,24.4,00.3,00.2,0671.9,31.0
2021-09-30T16:22:00Z,00000200,01000000,0000.20,0000.21,0000.40,-000.36,-000.03,0000.05,-000.01,0000.34,0000.25,18.1,24.3,00.3,00.2,0671.9,31.0
2021-09-30T16:23:00Z,00000200,01000000,0000.63,-000.04,-000.03,0000.43,0000.11,-000.21,0000.13,-000.32,-000.03,18.1,24.4,00.2,00.2,0671.9,31.0
2021-09-30T16:24:00Z,00000200,01000000,0000.45,-000.20,-000.04,-000.43,-000.21,0000.13,-000.35,0000.01,0000.24,18.1,24.3,00.3,00.2,0671.9,31.0
2021-09-30T16:25:00Z,00000200,01000000,-000.25,0000.11,0000.17,0000.09,0000.23,-000.01,0000.64,0000.38,-000.15,18.1,24.3,00.3,00.2,0671.9,31.0
2021-09-30T16:26:00Z,00000200,01000000,0000.38,-000.29,-000.05,0000.99,0000.13,-000.07,-000.17,-000.25,0000.13,18.1,24.3,00.4,00.3,0671.8,31.0
2021-09-30T16:27:00Z,00000200,01000000,0000.24,0000.07,0000.26,0000.12,0000.16,0000.09,-000.01,0000.35,0000.00,18.1,24.3,00.3,00.2,0671.9,31.0
2021-09-30T16:28:00Z,00000200,01000000,0000.35,0000.02,0000.31,-000.05,0000.19,0000.11,0000.19,-000.13,0000.23,18.1,24.3,00.4,00.3,0672.2,31.0
2021-09-30T16:29:00Z,00000200,01000000,-000.53,-000.00,-000.11,-000.09,0000.16,-000.17,0000.36,0000.26,0000.20,18.1,24.3,00.4,00.3,0673.0,31.0
2021-09-30T16:30:00Z,00000200,01000000,0000.49,-000.02,0000.19,0000.11,-000.00,0000.13,-000.68,-000.37,-000.40,18.2,24.4,00.2,00.2,0673.0,31.1
2021-09-30T16:31:00Z,00000200,01000000,-000.10,0000.27,-000.06,-000.43,0000.03,-000.05,0000.36,0000.27,0000.18,18.2,24.4,00.2,00.2,0673.1,31.0
2021-09-30T16:32:00Z,00000200,01000000,0000.39,-000.17,-000.12,-000.17,-000.05,0000.10,0000.19,0000.04,-000.06,18.3,24.4,00.3,00.2,0673.1,31.0
2021-09-30T16:33:00Z,00000200,01000000,-000.13,-000.25,0000.08,0000.49,-000.29,-000.08,-000.52,-000.13,-000.29,18.3,24.4,00.2,00.1,0673.1,31.0
2021-09-30T16:34:00Z,00000200,01000000,0000.06,-000.01,0000.22,-000.02,-000.04,0000.19,0000.01,-000.07,0000.06,18.3,24.4,00.2,00.2,0673.1,31.0
2021-09-30T16:35:00Z,00000200,01000000,0000.40,-000.05,-000.03,-000.15,-000.28,0000.13,0000.22,-000.08,-000.02,18.2,24.4,00.2,00.1,0673.1,31.0
2021-09-30T16:36:00Z,00000200,01000000,-000.26,0000.28,0000.20,-000.45,-000.04,-000.31,-000.48,0000.11,-000.20,18.2,24.4,00.2,00.1,0673.2,31.0
2021-09-30T16:37:00Z,00000200,01000000,-000.34,-000.19,-000.03,-000.31,0000.19,-000.01,0000.19,-000.33,0000.14,18.2,24.4,00.1,00.1,0673.2,31.0
2021-09-30T16:38:00Z,00000200,01000000,0000.21,0000.41,0000.16,0000.00,-000.00,0000.35,-000.22,-000.01,-000.55,18.2,24.4,00.1,00.1,0673.1,31.0
2021-09-30T16:39:00Z,00000200,01000000,0000.16,0000.26,0000.22,0000.45,-000.12,-000.47,0000.03,-000.08,0000.46,18.2,24.4,00.1,00.1,0673.1,31.0
2021-09-30T16:40:00Z,00000200,01000000,0000.27,0000.02,0000.01,-000.50,0000.18,0000.21,-000.09,-000.01,-000.32,18.1,24.4,00.1,00.1,0673.1,31.0
2021-09-30T16:41:00Z,00000200,01000000,-000.50,0000.04,0000.06,-000.10,-000.08,0000.17,-000.27,-000.34,0000.33,18.1,24.4,00.1,00.1,0673.1,31.0
2021-09-30T16:42:00Z,00000200,01000000,0000.61,0000.05,0000.09,-000.09,0000.36,0000.01,0000.36,0000.04,-000.25,18.1,24.4,00.1,00.1,0673.1,31.0
2021-09-30T16:43:00Z,00000200,01000000,-000.04,0000.07,0000.44,0000.44,0000.07,0000.45,0000.03,0000.29,0000.32,18.1,24.4,00.0,00.0,0673.1,31.0
2021-09-30T16:44:00Z,00000200,01000000,0000.25,0000.27,0000.20,0000.29,0000.23,-000.03,0000.18,-000.03,0000.11,18.2,24.4,00.0,00.0,0673.1,31.0
2021-09-30T16:45:00Z,00000200,01000000,-000.35,-000.20,-000.02,-000.30,-000.20,0000.04,-000.21,0000.10,-000.22,18.2,24.4,00.1,00.0,0673.1,31.0
2021-09-30T16:46:00Z,00000200,01000000,0000.47,0000.24,0000.37,-000.34,-000.07,0000.08,-000.05,0000.03,-000.28,18.2,24.4,00.0,00.0,0673.1,31.0
2021-09-30T16:47:00Z,00000200,01000000,-000.64,0000.05,0000.19,0000.25,0000.36,0000.20,0000.15,-000.31,0000.30,18.3,24.4,00.0,00.0,0673.1,31.0
2021-09-30T16:48:00Z,00000200,01000000,-000.20,0000.45,-000.10,0000.45,0000.04,-000.08,-000.35,0000.08,-000.44,18.2,24.4,00.0,00.0,0673.1,31.0
2021-09-30T16:49:00Z,00000200,01000000,-000.28,0000.05,0000.22,0000.72,0000.36,-000.26,-000.22,-000.22,0000.02,18.2,24.4,00.0,00.0,0673.1,31.0
2021-09-30T16:50:00Z,00000200,01000000,0000.82,0000.09,0000.20,-000.40,-000.04,0000.14,0000.45,0000.13,0000.30,18.2,24.4,,00.0,0673.1,31.0
2021-09-30T16:51:00Z,00000200,01000000,0000.36,0000.01,-000.12,0000.75,0000.16,-000.14,0000.13,0000.41,0000.01,18.2,24.4,00.0,00.0,0673.1,31.0
2021-09-30T16:52:00Z,00000200,01000000,0000.15,0000.09,0000.38,-000.12,0000.13,-000.07,0000.23,0000.01,0000.34,18.2,24.4,00.0,00.0,0673.1,31.0
2021-09-30T16:53:00Z,00000200,01000000,0000.07,0000.49,-000.39,-000.50,0000.09,-000.09,-000.33,-000.10,-000.60,18.1,24.4,00.0,00.0,0673.0,31.0
2021-09-30T16:54:00Z,00000200,01000000,-000.18,0000.18,0000.10,-000.08,-000.06,-000.13,0000.09,-000.17,0000.45,18.1,24.4,00.0,00.0,0673.0,31.0
2021-09-30T16:55:00Z,00000200,01000000,0000.15,0000.04,0000.05,0000.18,0000.32,-000.14,-000.32,-000.38,-000.45,18.1,24.4,00.0,00.0,0673.1,31.0
2021-09-30T16:56:00Z,00000200,01000000,0000.20,0000.04,0000.01,-000.40,0000.01,-000.34,-000.09,-000.00,-000.01,18.1,24.4,,00.0,0673.1,31.0
2021-09-30T16:57:00Z,00000200,41000000,,,,,,,0001.47,0001.26,0000.88,18.1,24.4,,00.0,0672.9,31.0
2021-09-30T16:58:00Z,00000200,61000000,,,,,,,-000.83,-000.70,-000.53,17.8,24.5,,00.0,0672.1,31.0
2021-09-30T16:59:00Z,00000200,21000000,,,,,,,-000.04,-000.04,0000.25,17.8,24.6,,00.0,0672.1,31.0
